Location: *
(45.5224°N, 122.7471°W)
Time: 04:37:57
(UTC+00:00)

Okean 2 Rocket - Pass Details

Date: 09 April 2020
Orbit: 617 x 641 km, 82.5° (Epoch: 24 May)

Event Time Altitude Azimuth Distance (km) Brightness Sun altitude
Rises 12:15:59 0° 341° (NNW) 2,949 6.7 -13.9°
Reaches altitude 10° 12:18:25 10° 332° (NNW) 2,038 5.7 -13.5°
Maximum altitude 12:22:23 31° 270° (W) 1,128 3.9 -12.9°
Enters shadow 12:25:43 13° 213° (SSW) 1,815 4.9 -12.4°
